This is the latest recevied weather packets stored in our database for station/object N9DMT-13. If no packets are shown the sender has not sent any weather packets the latest 1 day(s).
| Time | Temp. | Humidity | Pressure | Rain* | Wind** | Luminosity | Snow |
|---|---|---|---|---|---|---|---|
| 1778036664 | 3.89° C | 71% | 979.7 hPa | 0 mm | 0 m/s | - | - |
| 1778036364 | 4.44° C | 71% | 979.8 hPa | 0 mm | 0 m/s | - | - |
| 1778036062 | 4.44° C | 70% | 979.5 hPa | 0 mm | 0 m/s | - | - |
| 1778035761 | 4.44° C | 67% | 979.5 hPa | 0 mm | 0 m/s | - | - |
| 1778035461 | 5° C | 69% | 979.5 hPa | 0 mm | 0 m/s | - | - |
| 1778035160 | 5° C | 68% | 979.5 hPa | 0 mm | 0 m/s | - | - |
| 1778034859 | 5° C | 67% | 979.4 hPa | 0 mm | 0 m/s | - | - |
| 1778034558 | 5.56° C | 64% | 979.3 hPa | 0 mm | 0 m/s | - | - |
| 1778034257 | 5.56° C | 67% | 979.3 hPa | 0 mm | 0 m/s | - | - |
| 1778033957 | 5.56° C | 65% | 979.2 hPa | 0 mm | 0 m/s | - | - |
| 1778033656 | 6.11° C | 63% | 979.1 hPa | 0 mm | 0 m/s | - | - |
| 1778033355 | 6.11° C | 62% | 979 hPa | 0 mm | 0 m/s | - | - |
| 1778033054 | 6.67° C | 57% | 978.8 hPa | 0 mm | 0 m/s | - | - |
| 1778032754 | 6.67° C | 54% | 978.7 hPa | 0 mm | 0 m/s | - | - |
| 1778032453 | 7.22° C | 53% | 978.8 hPa | 0 mm | 0 m/s | - | - |
| 1778032152 | 7.22° C | 50% | 978.7 hPa | 0 mm | 0 m/s | - | - |
| 1778031850 | 7.78° C | 49% | 978.5 hPa | 0 mm | 0 m/s | - | - |
| 1778031549 | 7.78° C | 49% | 978.4 hPa | 0 mm | 0 m/s | - | - |
| 1778031248 | 7.78° C | 48% | 978.5 hPa | 0 mm | 0 m/s | - | - |
| 1778030947 | 8.33° C | 46% | 978.4 hPa | 0 mm | 0 m/s | - | - |
| 1778030646 | 8.33° C | 46% | 978.3 hPa | 0 mm | 0 m/s | - | - |
| 1778030345 | 8.33° C | 46% | 978.3 hPa | 0 mm | 0 m/s | - | - |
| 1778030044 | 8.89° C | 44% | 978.3 hPa | 0 mm | 0 m/s | - | - |
| 1778029743 | 8.89° C | 45% | 978.1 hPa | 0 mm | 0 m/s | - | - |
| 1778029442 | 8.89° C | 46% | 978.2 hPa | 0 mm | 0 m/s | - | - |
* Rain latest hour (hover to see other rain measurements)
** Current wind speed in m/s (hover to see current wind gust speed)